This is the latest recevied weather packets stored in our database for station/object KC3DGM. If no packets are shown the sender has not sent any weather packets the latest 10 day(s).
| Time | Temp. | Humidity | Pressure | Rain* | Wind** | Luminosity | Snow |
|---|---|---|---|---|---|---|---|
| 1778087578 | 11.11° C | 80% | 981.7 hPa | 0 mm | - | 193 W/m² | - |
| 1778087275 | 11.11° C | 82% | 981.6 hPa | 0 mm | - | 315 W/m² | - |
| 1778086971 | 11.67° C | 81% | 982.1 hPa | 0 mm | - | 184 W/m² | - |
| 1778086670 | 11.11° C | 82% | 981.9 hPa | 0 mm | - | 865 W/m² | - |
| 1778086367 | 10° C | 85% | 981.9 hPa | 0 mm | - | 316 W/m² | - |
| 1778086064 | 10° C | 85% | 981.7 hPa | 0 mm | - | 108 W/m² | - |
| 1778085761 | 10° C | 85% | 981.9 hPa | 0 mm | - | 62 W/m² | - |
| 1778085458 | 10.56° C | 84% | 981.5 hPa | 0 mm | - | 40 W/m² | - |
| 1778085152 | 10.56° C | 84% | 981.6 hPa | 0 mm | - | 48 W/m² | - |
| 1778084849 | 10.56° C | 85% | 981.7 hPa | 0 mm | - | 71 W/m² | - |
| 1778084547 | 10.56° C | 85% | 981.6 hPa | 0 mm | - | 155 W/m² | - |
| 1778084244 | 10.56° C | 86% | 981.4 hPa | 0 mm | - | 104 W/m² | - |
| 1778083941 | 10.56° C | 84% | 981.2 hPa | 0 mm | - | 84 W/m² | - |
| 1778083639 | 10.56° C | 84% | 981.6 hPa | 0 mm | - | 116 W/m² | - |
| 1778083335 | 11.11° C | 85% | 981.5 hPa | 0 mm | - | 95 W/m² | - |
| 1778083033 | 10.56° C | 84% | 981.2 hPa | 0 mm | - | 156 W/m² | - |
| 1778082730 | 10.56° C | 85% | 981.1 hPa | 0 mm | - | 160 W/m² | - |
| 1778081598 | 10.56° C | 86% | 980.9 hPa | 0 mm | - | 346 W/m² | - |
| 1778081295 | 10° C | 89% | 980.8 hPa | 0 mm | - | 220 W/m² | - |
| 1778080992 | 10° C | 90% | 981 hPa | 0 mm | - | 129 W/m² | - |
| 1778080691 | 10° C | 90% | 980.9 hPa | 0 mm | - | 55 W/m² | - |
| 1778080387 | 10° C | 90% | 980.9 hPa | 0 mm | - | 126 W/m² | - |
| 1778080084 | 10° C | 92% | 980.9 hPa | 0 mm | - | 155 W/m² | - |
| 1778079781 | 9.44° C | 92% | 980.7 hPa | 0 mm | - | 123 W/m² | - |
| 1778079478 | 9.44° C | 92% | 980.8 hPa | 0 mm | - | 95 W/m² | - |
* Rain latest hour (hover to see other rain measurements)
** Current wind speed in m/s (hover to see current wind gust speed)